GW2857 Weather Reports


time (UTC)temp
C
wind
direction
speed
KPH
gust
KPH
rain 1hr
cm
rain 24hr
cm
rain mn
cm
humidity
%
barometer
mb
20260506222015 6 0.0 6.4 0.03 1.04 0.99 95 1006.5
20260506221515 6 338 1.6 6.4 0.03 1.04 0.99 95 1006.4
20260506221015 6 338 1.6 3.2 0.03 1.04 0.99 94 1006.6
20260506220535 6 338 3.2 4.8 0.03 1.04 0.99 95 1006.8
20260506220015 6 338 1.6 8.0 0.03 1.04 0.99 95 1006.7
20260506215515 6 0.0 1.6 0.03 1.04 0.99 95 1006.6
20260506215015 6 338 4.8 6.4 0.03 1.04 0.99 95 1006.5
20260506214516 6 338 3.2 6.4 0.05 1.04 0.99 95 1006.5
20260506214015 6 338 1.6 4.8 0.03 1.02 0.97 95 1006.4
20260506213515 6 338 1.6 4.8 0.03 1.02 0.97 95 1006.4
20260506213015 6 338 3.2 8.0 0.03 1.02 0.97 95 1006.5
20260506212515 6 338 3.2 8.0 0.03 1.02 0.97 95 1006.4
20260506212018 6 0 1.6 4.8 0.03 1.02 0.97 95 1006.5
20260506211517 6 0.0 3.2 0.03 1.02 0.97 95 1006.3
20260506211037 6 0.0 1.6 0.03 1.02 0.97 95 1006.2
20260506210517 6 338 1.6 4.8 0.03 1.02 0.97 94 1006.1
20260506210017 6 338 1.6 6.4 0.03 1.02 0.97 94 1006.1
20260506205517 6 338 4.8 6.4 0.03 1.02 0.97 94 1006.1
20260506205017 6 338 3.2 8.0 0.03 1.02 0.97 94 1006.2
20260506204518 6 315 1.6 6.4 0.00 0.99 0.94 94 1006.2
20260506204017 6 0.0 1.6 0.00 0.99 0.94 94 1006.1
20260506203517 6 0.0 1.6 0.00 0.99 0.94 94 1006.1
20260506203037 6 315 1.6 4.8 0.03 0.99 0.94 94 1006.1
20260506202517 6 0.0 3.2 0.03 0.99 0.94 94 1006.1
20260506202036 6 338 1.6 6.4 0.03 0.99 0.94 94 1006.2
20260506201516 6 338 1.6 4.8 0.03 0.99 0.94 94 1006.2
20260506201017 7 338 1.6 4.8 0.05 0.99 0.94 94 1006.1
20260506200516 7 0.0 0.0 0.05 0.99 0.94 94 1006.1
20260506200017 7 0.0 0.0 0.05 0.99 0.94 94 1006.0
20260506195517 7 338 3.2 6.4 0.05 0.99 0.94 94 1006.0
20260506195017 7 0.0 3.2 0.08 0.99 0.94 94 1006.1
20260506194517 7 315 1.6 3.2 0.08 0.99 0.94 94 1006.1
20260506194017 7 0.0 1.6 0.08 0.99 0.94 94 1006.0
20260506193517 7 0.0 1.6 0.08 0.99 0.94 94 1006.0
20260506193017 7 0.0 0.0 0.05 0.97 0.91 94 1006.1
20260506192537 7 0.0 1.6 0.05 0.99 0.91 94 1006.0
20260506192017 7 0.0 0.0 0.05 0.99 0.91 94 1006.1
20260506191516 7 0.0 3.2 0.05 1.07 0.91 94 1006.1
20260506191017 6 0.0 0.0 0.03 1.04 0.89 94 1006.0
20260506190517 6 0.0 1.6 0.03 1.04 0.89 94 1006.1
20260506190017 6 0.0 3.2 0.03 1.04 0.89 94 1006.3
20260506185517 6 338 4.8 6.4 0.03 1.04 0.89 94 1006.2
20260506185037 6 0.0 3.2 0.00 1.02 0.86 94 1006.2
20260506184537 6 0 1.6 6.4 0.00 1.02 0.86 94 1006.3
20260506184017 6 338 1.6 4.8 0.00 1.02 0.86 94 1006.4
20260506183516 6 338 3.2 6.4 0.03 1.02 0.86 94 1006.3
20260506183016 6 338 3.2 6.4 0.03 1.02 0.86 94 1006.3
20260506182516 6 338 3.2 6.4 0.03 1.02 0.86 94 1006.4
20260506182017 6 338 3.2 6.4 0.05 1.02 0.86 94 1006.3
20260506181517 6 338 3.2 6.4 0.05 1.02 0.86 94 1006.3
20260506181016 6 315 1.6 8.0 0.08 1.02 0.86 94 1006.3
20260506180517 6 0.0 1.6 0.08 1.02 0.86 94 1006.4
20260506180016 6 338 3.2 8.0 0.08 1.02 0.86 94 1006.5
20260506175516 6 338 1.6 4.8 0.10 1.02 0.86 94 1006.5
20260506175016 6 0.0 4.8 0.10 1.02 0.86 94 1006.5
20260506174536 6 338 3.2 6.4 0.10 1.02 0.86 94 1006.6
20260506174016 6 338 1.6 6.4 0.10 1.02 0.86 94 1006.6
20260506173517 6 338 1.6 4.8 0.10 0.99 0.84 94 1006.6
20260506173017 6 0.0 1.6 0.10 0.99 0.84 94 1006.5
20260506172516 6 338 1.6 6.4 0.10 0.99 0.84 94 1006.8
20260506172056 6 0.0 3.2 0.10 0.97 0.81 94 1007.0
20260506171517 6 0.0 3.2 0.10 0.97 0.81 94 1007.0
20260506171017 6 338 1.6 4.8 0.10 0.94 0.79 94 1006.9
20260506170516 6 0.0 1.6 0.10 0.94 0.79 94 1007.0
20260506170016 6 315 3.2 6.4 0.13 0.94 0.79 94 1006.9
20260506165516 6 315 4.8 8.0 0.13 0.91 0.76 94 1006.8
20260506165016 6 315 3.2 6.4 0.15 0.91 0.76 94 1006.9
20260506164516 6 0.0 1.6 0.15 0.91 0.76 94 1006.7
20260506164116 6 338 3.2 6.4 0.18 0.91 0.76 94 1006.8
20260506163516 6 338 1.6 3.2 0.18 0.89 0.74 94 1006.9
20260506163017 6 0.0 1.6 0.20 0.89 0.74 94 1006.9
20260506162516 6 338 3.2 6.4 0.23 0.89 0.74 94 1007.0
20260506162016 6 0.0 1.6 0.20 0.86 0.71 94 1007.0
20260506161516 6 338 3.2 6.4 0.23 0.86 0.71 93 1007.1
20260506161016 6 0.0 3.2 0.20 0.84 0.69 93 1007.1
20260506160517 6 0.0 3.2 0.23 0.84 0.69 93 1007.2
20260506160017 6 338 1.6 4.8 0.23 0.81 0.66 93 1007.4
20260506155516 6 0.0 3.2 0.20 0.79 0.64 93 1007.5
20260506155036 6 0.0 1.6 0.20 0.76 0.61 93 1007.5
20260506154516 6 338 1.6 6.4 0.23 0.76 0.61 93 1007.5
20260506154036 6 0.0 1.6 0.23 0.74 0.58 93 1007.5
20260506153517 6 338 1.6 4.8 0.20 0.71 0.56 93 1007.7
20260506153016 6 315 1.6 4.8 0.18 0.69 0.53 93 1007.7
20260506152517 6 338 1.6 6.4 0.18 0.66 0.51 93 1007.8
20260506152036 6 0.0 1.6 0.18 0.66 0.51 93 1007.5
20260506151516 6 0.0 0.0 0.15 0.64 0.48 93 1007.6
20260506151016 6 338 1.6 4.8 0.15 0.64 0.48 93 1007.6
20260506150516 6 338 1.6 6.4 0.13 0.61 0.46 93 1007.6
20260506150036 6 0.0 1.6 0.13 0.58 0.43 93 1007.5
20260506145537 6 0.0 3.2 0.13 0.58 0.43 93 1007.5
20260506145016 6 0.0 4.8 0.10 0.56 0.41 92 1007.5
20260506144516 6 0.0 1.6 0.08 0.53 0.38 93 1007.4
20260506144016 6 0.0 1.6 0.08 0.51 0.36 92 1007.5
20260506143516 6 338 1.6 4.8 0.10 0.51 0.36 92 1007.5
20260506143016 6 338 3.2 6.4 0.10 0.51 0.36 92 1007.5
20260506142517 6 0.0 0.0 0.10 0.48 0.33 92 1007.5
20260506142016 6 0.0 1.6 0.13 0.48 0.33 92 1007.4
20260506141516 6 0.0 0.0 0.13 0.48 0.33 92 1007.6
20260506141016 6 355 0.0 0.0 0.13 0.48 0.33 92 1007.6
20260506140516 6 338 1.6 4.8 0.15 0.48 0.33 92 1007.6
20260506140016 7 0.0 3.2 0.13 0.46 0.30 92 1007.5
20260506135517 7 338 3.2 4.8 0.15 0.46 0.30 93 1007.3
20260506135016 7 338 1.6 4.8 0.15 0.46 0.30 92 1007.4
20260506134521 7 0.0 1.6 0.18 0.46 0.30 92 1007.6
20260506134017 7 0.0 1.6 0.15 0.43 0.28 92 1007.6
20260506133516 7 0.0 1.6 0.15 0.41 0.25 92 1007.4
20260506133016 7 0 3.2 6.4 0.15 0.41 0.25 92 1007.4
20260506132537 7 0.0 1.6 0.13 0.38 0.23 91 1007.4
20260506132016 7 338 1.6 9.7 0.10 0.36 0.20 91 1007.5
20260506131516 7 203 1.6 4.8 0.10 0.36 0.20 91 1006.9
20260506131036 7 0 1.6 6.4 0.13 0.36 0.20 91 1007.7
20260506130516 7 0.0 0.0 0.10 0.33 0.18 91 1007.0
20260506130017 7 0.0 1.6 0.10 0.33 0.18 91 1007.3
20260506125516 7 338 3.2 4.8 0.08 0.30 0.15 90 1007.6
20260506125016 7 0.0 3.2 0.08 0.30 0.15 90 1007.6
20260506124516 7 315 3.2 6.4 0.05 0.28 0.13 90 1007.5
20260506124016 7 338 1.6 6.4 0.05 0.28 0.13 90 1007.6
20260506123516 7 338 3.2 6.4 0.03 0.25 0.10 89 1007.7
20260506123016 7 0.0 1.6 0.03 0.25 0.10 89 1007.4
20260506122517 7 315 1.6 4.8 0.03 0.25 0.10 89 1007.3
20260506122016 8 338 3.2 6.4 0.03 0.25 0.10 89 1007.9
20260506121536 8 338 4.8 16.1 0.03 0.25 0.10 89 1007.5
20260506121016 8 338 3.2 6.4 0.00 0.23 0.08 89 1007.6
20260506120516 8 338 3.2 6.4 0.00 0.23 0.08 88 1007.6
20260506120016 8 0.0 3.2 0.00 0.23 0.08 88 1007.4
20260506115517 8 338 1.6 6.4 0.00 0.23 0.08 87 1007.3
20260506115016 8 338 1.6 6.4 0.00 0.23 0.08 87 1007.6
20260506114516 8 338 3.2 6.4 0.00 0.23 0.08 87 1007.4
20260506114016 8 338 3.2 6.4 0.00 0.23 0.08 87 1007.5
20260506113516 8 338 3.2 8.0 0.00 0.23 0.08 87 1007.6
20260506113016 8 0.0 1.6 0.00 0.23 0.08 87 1007.4
20260506112516 8 0.0 4.8 0.00 0.23 0.08 87 1007.3
20260506112016 8 338 1.6 4.8 0.00 0.23 0.08 87 1007.6
20260506111516 8 0 1.6 4.8 0.00 0.23 0.08 87 1007.2
20260506111016 9 0.0 1.6 0.00 0.23 0.08 87 1007.3
20260506110516 9 0.0 3.2 0.00 0.23 0.08 88 1007.6
20260506110036 9 338 3.2 4.8 0.00 0.23 0.08 88 1007.6
20260506105537 9 338 4.8 9.7 0.00 0.23 0.08 88 1007.4
20260506105016 10 338 1.6 4.8 0.00 0.23 0.08 88 1007.2
20260506104516 10 338 4.8 8.0 0.00 0.23 0.08 88 1007.0
20260506104016 10 315 3.2 6.4 0.00 0.23 0.08 89 1007.0
20260506103516 10 338 3.2 8.0 0.00 0.23 0.08 89 1006.9
20260506103036 10 338 1.6 3.2 0.00 0.23 0.08 89 1006.8
20260506102516 10 315 1.6 3.2 0.00 0.23 0.08 89 1006.8
20260506102016 10 338 1.6 4.8 0.00 0.23 0.08 90 1006.7
20260506101516 10 338 1.6 4.8 0.00 0.23 0.08 90 1006.7
20260506101035 10 338 1.6 4.8 0.00 0.23 0.08 90 1006.7
20260506100516 10 338 1.6 4.8 0.00 0.23 0.08 90 1006.5
20260506100016 11 0.0 1.6 0.00 0.23 0.08 90 1006.7
20260506095517 11 0.0 1.6 0.00 0.23 0.08 91 1006.7
20260506095016 11 338 1.6 6.4 0.00 0.23 0.08 91 1007.2
20260506094516 11 0.0 3.2 0.00 0.23 0.08 91 1007.0
20260506094016 11 0.0 3.2 0.00 0.23 0.08 91 1007.1
20260506093516 11 0.0 0.0 0.00 0.23 0.08 91 1006.6
20260506093016 11 338 1.6 8.0 0.00 0.23 0.08 92 1008.2
20260506092516 11 0.0 1.6 0.00 0.23 0.08 92 1007.5
20260506092016 11 0.0 0.0 0.00 0.23 0.08 92 1007.2
20260506091515 12 0.0 0.0 0.00 0.23 0.08 92 1007.4
20260506091036 12 0.0 1.6 0.00 0.23 0.08 92 1007.3
20260506090515 12 0.0 0.0 0.00 0.23 0.08 92 1007.1
20260506090055 12 0.0 0.0 0.00 0.23 0.08 92 1007.2
20260506085516 12 0.0 0.0 0.00 0.23 0.08 92 1007.2
20260506085035 12 0.0 0.0 0.00 0.23 0.08 91 1007.0
20260506084516 12 0.0 0.0 0.00 0.23 0.08 91 1007.1
20260506084016 12 0.0 0.0 0.00 0.23 0.08 90 1007.5
20260506083516 12 0.0 0.0 0.00 0.23 0.08 90 1007.3
20260506083016 12 0.0 0.0 0.03 0.23 0.08 89 1007.1
20260506082515 12 0.0 0.0 0.03 0.23 0.08 89 1007.2
20260506082016 12 0.0 0.0 0.03 0.23 0.08 88 1007.4
20260506081516 12 0.0 0.0 0.03 0.23 0.08 88 1007.3
20260506081015 12 0.0 0.0 0.03 0.23 0.08 87 1007.9
20260506080536 12 0.0 0.0 0.03 0.23 0.08 87 1007.4
20260506073516 13 248 3.2 4.8 0.03 0.23 0.08 85 1008.4
20260506073015 13 0.0 0.0 0.00 0.20 0.05 84 1007.0
20260506072515 13 0.0 0.0 0.00 0.20 0.05 83 1006.9
20260506072015 13 0.0 0.0 0.03 0.20 0.05 82 1007.1
20260506071517 13 0.0 0.0 0.03 0.20 0.05 82 1007.3
20260506071016 13 0.0 0.0 0.03 0.20 0.05 82 1007.2
20260506070515 13 0.0 0.0 0.03 0.20 0.05 82 1007.2
20260506062515 14 0.0 0.0 0.03 0.20 0.05 81 1007.8
20260506062018 14 0.0 0.0 0.00 0.18 0.03 82 1007.7
20260506061515 14 0.0 0.0 0.00 0.18 0.03 81 1007.5
20260506061035 14 0.0 0.0 0.00 0.18 0.03 81 1007.2
20260506060516 14 0.0 0.0 0.00 0.18 0.03 81 1007.3
20260506051015 14 0.0 0.0 0.03 0.18 0.03 84 1008.0
20260506050515 14 0.0 3.2 0.03 0.18 0.03 85 1007.9
20260506045015 13 0.0 0.0 0.03 0.18 0.03 90 1008.1
20260506044515 13 0.0 0.0 0.03 0.18 0.03 90 1008.2
20260506044015 13 0.0 3.2 0.03 0.18 0.03 90 1008.1
20260506043535 13 0.0 0.0 0.03 0.18 0.03 90 1007.7
20260506043016 13 0.0 0.0 0.03 0.18 0.03 90 1007.5
20260506042515 13 0.0 0.0 0.05 0.18 0.03 90 1007.8
20260506042015 13 0.0 0.0 0.08 0.18 0.03 89 1007.8
20260506041515 13 0.0 0.0 0.08 0.18 0.03 89 1007.3
20260506041015 13 0.0 0.0 0.05 0.15 0.00 89 1007.6
20260506040515 14 0.0 0.0 0.05 0.15 0.00 89 1007.5
20260506040016 14 0.0 0.0 0.05 0.15 0.15 89 1007.3
20260506035515 14 0.0 0.0 0.05 0.15 0.15 88 1007.1
20260506035016 14 0.0 0.0 0.05 0.15 0.15 87 1007.1
20260506034516 15 0.0 0.0 0.05 0.15 0.15 86 1007.5
20260506034015 15 0.0 1.6 0.05 0.15 0.15 85 1007.5
20260506033536 15 0.0 0.0 0.05 0.15 0.15 84 1007.5
20260506033016 15 0.0 0.0 0.05 0.15 0.15 82 1007.6
20260506032516 16 315 1.6 6.4 0.03 0.13 0.13 80 1007.8
20260506032016 16 338 1.6 4.8 0.00 0.10 0.10 78 1007.6
20260506031516 16 248 1.6 6.4 0.00 0.10 0.10 77 1006.9
20260506031015 16 203 1.6 6.4 0.00 0.10 0.10 76 1006.6
20260506030536 16 203 1.6 4.8 0.00 0.10 0.10 76 1006.6
20260506030035 16 203 1.6 4.8 0.00 0.10 0.10 76 1006.6
20260506025516 17 0.0 1.6 0.00 0.10 0.10 75 1006.6
20260506025016 17 0.0 1.6 0.00 0.10 0.10 75 1006.4
20260506024516 17 0.0 1.6 0.00 0.10 0.10 75 1006.4
20260506024035 17 0.0 1.6 0.00 0.10 0.10 74 1006.3
20260506023516 17 0.0 1.6 0.00 0.10 0.10 74 1006.3
20260506023015 17 203 1.6 8.0 0.00 0.10 0.10 75 1006.2
20260506022536 17 0.0 8.0 0.00 0.10 0.10 75 1006.2
20260506022016 17 180 1.6 6.4 0.00 0.10 0.10 75 1006.2
20260506021535 17 180 1.6 4.8 0.00 0.10 0.10 74 1006.1
20260506021015 17 180 1.6 4.8 0.00 0.10 0.10 74 1006.1
20260506020515 17 158 1.6 6.4 0.00 0.10 0.10 74 1005.9
20260506020016 17 180 1.6 6.4 0.00 0.10 0.10 73 1006.1
20260506015516 17 0.0 6.4 0.00 0.10 0.10 73 1006.1
20260506015015 17 180 1.6 4.8 0.00 0.10 0.10 73 1006.1
20260506014516 17 203 1.6 4.8 0.00 0.10 0.10 74 1006.1
20260506014015 17 0.0 0.0 0.00 0.10 0.10 74 1006.1
20260506013515 17 225 3.2 4.8 0.00 0.10 0.10 74 1006.1
20260506013021 17 158 1.6 6.4 0.00 0.10 0.10 74 1005.9
20260506012515 17 0.0 4.8 0.00 0.10 0.10 73 1005.8
20260506012015 17 0.0 1.6 0.00 0.10 0.10 71 1005.8
20260506011516 17 203 1.6 6.4 0.00 0.10 0.10 70 1005.5
20260506011015 17 180 3.2 6.4 0.00 0.10 0.10 69 1005.3
20260506010515 18 158 4.8 6.4 0.00 0.10 0.10 69 1005.1
20260506010015 18 180 3.2 6.4 0.00 0.10 0.10 68 1005.1
20260506005515 18 0.0 3.2 0.00 0.10 0.10 68 1005.1
20260506005015 17 0.0 1.6 0.00 0.10 0.10 69 1005.2
20260506004515 17 158 1.6 6.4 0.00 0.10 0.10 69 1005.2
20260506004036 18 180 1.6 4.8 0.00 0.10 0.10 69 1004.8
20260506003515 17 180 1.6 6.4 0.00 0.10 0.10 69 1004.9
20260506003035 17 180 1.6 4.8 0.00 0.10 0.10 70 1004.7
20260506002515 17 0.0 1.6 0.00 0.10 0.10 70 1004.7
20260506002035 17 0.0 0.0 0.00 0.10 0.10 70 1004.7
20260506001516 17 0.0 0.0 0.00 0.10 0.10 69 1004.7
20260506001015 18 180 1.6 4.8 0.00 0.10 0.10 69 1004.8
20260506000515 18 175 0.0 0.0 0.00 0.10 0.10 69 1004.8
20260506000015 18 158 1.6 4.8 0.00 0.10 0.10 69 1004.7
20260505235515 18 180 3.2 6.4 0.00 0.10 0.10 69 1004.7
20260505235015 18 203 1.6 6.4 0.00 0.10 0.10 69 1004.6
20260505234515 18 180 1.6 4.8 0.00 0.10 0.10 69 1004.6
20260505234035 17 0.0 4.8 0.00 0.10 0.10 70 1004.5
20260505233536 17 180 1.6 8.0 0.00 0.10 0.10 70 1004.5
20260505233015 17 180 1.6 6.4 0.00 0.10 0.10 71 1004.7
20260505232515 18 135 1.6 4.8 0.00 0.10 0.10 71 1004.7
20260505232015 18 135 3.2 6.4 0.00 0.10 0.10 70 1004.7
20260505231515 18 135 1.6 4.8 0.00 0.10 0.10 70 1004.6
20260505231015 18 180 1.6 6.4 0.00 0.10 0.10 70 1004.5
20260505230515 18 0.0 1.6 0.00 0.10 0.10 69 1004.4
20260505230016 18 0.0 0.0 0.00 0.10 0.10 69 1004.3
20260505225515 18 0.0 0.0 0.00 0.10 0.10 69 1004.4
20260505225015 18 0.0 0.0 0.00 0.10 0.10 68 1004.4
20260505224515 19 0.0 0.0 0.00 0.10 0.10 65 1004.5
20260505224016 19 0.0 0.0 0.00 0.10 0.10 63 1004.5
20260505223515 19 0.0 0.0 0.00 0.10 0.10 62 1004.6
20260505223015 19 180 1.6 4.8 0.00 0.10 0.10 63 1004.6
20260505222515 19 0.0 0.0 0.00 0.10 0.10 63 1004.3